Showing default

QIANFAN-67, 62797

Orbit data source: Space-Track

QIANFAN-67, 62797 is a Chinese payload satellite in LEO that was launched on Thu, 23 Jan 2025 UTC via a CHANG ZHENG 6A launch vehicle from the Taiyaun Space Center, China (TSC). Payload-class satellites include a variety of spacecraft equipped with specific instruments for various scientific and technological missions. These include communications satellites like Starlink; space stations such as the ISS; scientific satellites like the Hubble; Earth observation satellites from companies like Planet Labs, Umbra, and HawkEye 360; GPS; miniature CubeSats for education and research; and military/defense satellites.

Loading next visibility...
Identifier
62797, 2025-016N
Orbit
LEO
Last TLE update
13 hours ago
Origin
Manufacturer
SECM
Mission
Operational Commercial Communications
Bus & Motor
QIANFAN, Unknown motor
Mass
267 kg wet, ~267 kg dry
Launch date (UTC)
2025-01-23 (5 months ago)
Launch vehicle
CHANG ZHENG 6A
Launch site
Taiyaun Space Center, China (TSC)
Object type
Payload
Rocket body
Debris
Shape & HBR
Box + 1 Pan, 10 m
Radar Cross Section
13.200 m², Large (>1 m²)

Expand to show TLE details & history

TLE from 13 hours ago
0 QIANFAN-67
1 62797U 25016N   25181.89483402  .00000114  00000-0  15806-3 0  9999
2 62797  88.9856 120.0430 0017316  99.0365 261.2747 13.50950350 25004
Epoch: 2025-06-30T21:28Z
TLE epoch observation values (Epoch: 2025-06-30T21:28:33.659Z)
Latitude
0.00002°
Longitude
-121.29533°
Altitude
1,073.696 km
Speed
7.314 km/s
True Right ascension
08h 00m 10s
True Declination
0° 00' 00"
Sunlit
Object was in daylight at epoch
Visualization orbit readout
Latitude
66.84943°
Longitude
-118.98869°
Altitude
1,069.316 km
Speed
7.329 km/s
Apparent Right ascension
09h 14m 34s
Apparent Declination
19° 48' 34"
Sunlit
Object is in daylight
Visualization observer readout
Local Sidereal Time
21:53:17
Azimuth
10.48° NNE
Elevation
-29.596°
Doppler factor
1
Orbital elements
Apogee altitude
1,078.705 km
Perigee altitude
1,052.925 km
Semi-major axis
7,443.952 km
Eccentricity
0.00173
Inclination
88.9856°
RAAN
120.043°
Arg. of periapsis
99.0365°
True anomaly
Unknown
Mean anomaly
261.2747°
Eccentric anomaly
Unknown
Mean motion
3.37939 °/min
Orbital period
106.53 mins
BSTAR
0.00015806
Loading maneuver chart data...
Loading SW <> Apogee altitude chart data...
Loading historical data...
Loading historical data...
Loading historical data...
Loading historical data...
Loading historical data...
Loading historical data...
Loading historical data...

QIANFAN-67 Visibility forecast

Observer location: undefined°, undefined°

Span
Click to sort rows by Start time (UTC) header in descending order
Start Az.
Max El. time (UTC)
Max El. Az.
Max El.
End time (UTC)
End Az.
8 mins2025-07-01 18:56:52.324Z116.183° SE2025-07-01 19:00:52.324Z75.044° E19.911°2025-07-01 19:04:52.324Z33.537° NE
11 mins2025-07-01 20:41:52.324Z195.95° SSW2025-07-01 20:46:52.324Z272.371° WNW40.97°2025-07-01 20:52:52.324Z350.809° N
12 mins2025-07-02 07:50:52.324Z8.134° NNE2025-07-02 07:56:52.324Z115.054° SE42.12°2025-07-02 08:02:52.324Z171.526° S
6 mins2025-07-02 09:39:52.324Z312.203° NW2025-07-02 09:41:52.324Z290.612° WNW17.958°2025-07-02 09:45:52.324Z249.599° W
|